Ravenna, OH

10:25 PM EDT on August 17, 2017 (GMT -0400)
Ravenna

Weather History for KPOV - November, 2012

Change the Weather History Date:

Monday, November 19, 2012

  Actual Average (KCAK) Record (KCAK)
Temperature  
Mean Temperature 40 °F -  
Max Temperature 52 °F 49 °F 72 °F (1985)
Min Temperature 29 °F 34 °F 7 °F (2014)
Degree Days  
Heating Degree Days 24    
Moisture  
Dew Point 30 °F    
Average Humidity 72    
Maximum Humidity 94    
Minimum Humidity 44    
Precipitation  
Precipitation 0.00 in - - ()
Sea Level Pressure  
Sea Level Pressure 30.32 in    
Wind  
Wind Speed 4 mph (East)    
Max Wind Speed 7 mph    
Max Gust Speed -    
Visibility 10 miles    
Events      
Averages and records for this station are not official NWS values.
T = Trace of Precipitation, MM = Missing Value Source: NWS Daily Summary

Daily Weather History Graph

Daily Weather History Graph

Search for Another Location

Airport or City:

Trip Planner

Search our weather history database for the weather conditions in past years. The results will help you decide how hot, cold, wet, or windy it might be!

Date:

Astronomy

Nov. 19, 2012 Rise Set
Actual Time 7:18 AM EST 5:02 PM EST
Civil Twilight 6:48 AM EST 5:32 PM EST
Nautical Twilight 6:14 AM EST 6:05 PM EST
Astronomical Twilight 5:41 AM EST 6:38 PM EST
Moon 12:19 PM EST (11/19) 11:29 PM EST (11/19)
Length of Visible Light 10h 43m
Length of Day
9h 44m
Waxing Crescent, 40% of the Moon is Illuminated
Nov 19
Waxing Crescent
Nov 20
First Quarter
Nov 28
Full
Dec 6
Last Quarter
Dec 13
New

Hourly Weather History & Observations

Time (EST) Temp. Windchill Dew Point Humidity Pressure Visibility Wind Dir Wind Speed Gust Speed Precip Events Conditions
12:15 AM 33.1 °F 28.7 °F 27.7 °F 81% 30.42 in 10.0 mi East 4.6 mph - N/A   Clear
12:34 AM 33.1 °F 28.7 °F 27.5 °F 80% 30.42 in 10.0 mi East 4.6 mph - N/A   Clear
12:55 AM 32.0 °F 27.5 °F 27.3 °F 83% 30.42 in 10.0 mi East 4.6 mph - N/A   Clear
1:14 AM 31.5 °F 25.8 °F 27.0 °F 83% 30.41 in 10.0 mi East 5.8 mph - N/A   Clear
1:34 AM 31.6 °F 27.0 °F 27.1 °F 83% 30.40 in 10.0 mi East 4.6 mph - N/A   Clear
1:55 AM 32.0 °F 27.5 °F 27.1 °F 82% 30.40 in 10.0 mi East 4.6 mph - N/A   Clear
2:15 AM 33.1 °F 28.7 °F 27.7 °F 81% 30.40 in 10.0 mi East 4.6 mph - N/A   Clear
2:34 AM 31.8 °F 26.2 °F 26.8 °F 82% 30.41 in 10.0 mi East 5.8 mph - N/A   Clear
2:55 AM 30.0 °F 24.1 °F 25.9 °F 85% 30.40 in 10.0 mi East 5.8 mph - N/A   Clear
3:15 AM 29.5 °F 23.4 °F 25.9 °F 86% 30.39 in 10.0 mi East 5.8 mph - N/A   Clear
3:34 AM 30.2 °F 25.4 °F 26.4 °F 86% 30.39 in 10.0 mi East 4.6 mph - N/A   Clear
3:55 AM 29.3 °F 24.3 °F 25.9 °F 87% 30.39 in 10.0 mi East 4.6 mph - N/A   Clear
4:15 AM 29.7 °F 24.7 °F 27.0 °F 90% 30.39 in 10.0 mi East 4.6 mph - N/A   Clear
4:34 AM 29.3 °F 24.3 °F 26.2 °F 88% 30.39 in 10.0 mi East 4.6 mph - N/A   Clear
4:55 AM 30.2 °F 24.3 °F 26.2 °F 85% 30.39 in 10.0 mi East 5.8 mph - N/A   Clear
5:14 AM 31.1 °F 25.4 °F 27.7 °F 87% 30.40 in 10.0 mi East 5.8 mph - N/A   Clear
5:35 AM 30.0 °F 24.1 °F 27.3 °F 90% 30.40 in 10.0 mi East 5.8 mph - N/A   Clear
5:54 AM 29.7 °F 22.8 °F 27.5 °F 92% 30.40 in 10.0 mi East 6.9 mph - N/A   Clear
6:15 AM 30.0 °F 24.1 °F 27.9 °F 92% 30.39 in 10.0 mi East 5.8 mph - N/A   Clear
6:34 AM 29.3 °F 23.2 °F 27.5 °F 93% 30.39 in 10.0 mi East 5.8 mph - N/A   Clear
7:15 AM 29.7 °F 22.8 °F 28.2 °F 94% 30.39 in 10.0 mi East 6.9 mph - N/A   Clear
7:34 AM 29.7 °F 23.7 °F 27.7 °F 92% 30.39 in 7.0 mi East 5.8 mph - N/A   Clear
7:55 AM 31.8 °F 26.2 °F 29.3 °F 90% 30.39 in 7.0 mi East 5.8 mph - N/A   Clear
8:34 AM 35.1 °F 30.1 °F 30.9 °F 85% 30.39 in 7.0 mi East 5.8 mph - N/A   Clear
8:55 AM 37.6 °F 32.3 °F 31.1 °F 77% 30.39 in 10.0 mi East 6.9 mph - N/A   Clear
9:15 AM 39.0 °F 35.7 °F 31.6 °F 75% 30.39 in 10.0 mi ESE 4.6 mph - N/A   Clear
9:34 AM 40.6 °F 36.0 °F 32.0 °F 71% 30.38 in 10.0 mi ESE 6.9 mph - N/A   Clear
9:55 AM 41.5 °F 37.8 °F 32.0 °F 69% 30.37 in 10.0 mi ESE 5.8 mph - N/A   Clear
10:15 AM 41.2 °F 39.2 °F 32.0 °F 70% 30.37 in 10.0 mi SE 3.5 mph - N/A   Clear
10:34 AM 41.4 °F 38.4 °F 32.0 °F 69% 30.38 in 10.0 mi ESE 4.6 mph - N/A   Clear
10:55 AM 43.0 °F 41.3 °F 32.0 °F 65% 30.37 in 10.0 mi South 3.5 mph - N/A   Clear
11:15 AM 44.8 °F 42.4 °F 33.3 °F 64% 30.36 in 10.0 mi SE 4.6 mph - N/A   Clear
11:34 AM 45.7 °F - 32.9 °F 61% 30.36 in 10.0 mi Calm Calm - N/A   Clear
11:55 AM 46.6 °F - 33.1 °F 59% 30.34 in 10.0 mi Calm Calm - N/A   Clear
12:15 PM 47.7 °F - 33.1 °F 57% 30.33 in 10.0 mi East 4.6 mph - N/A   Clear
12:34 PM 47.5 °F - 32.0 °F 55% 30.33 in 10.0 mi Calm Calm - N/A   Clear
12:55 PM 49.1 °F - 32.4 °F 53% 30.32 in 10.0 mi Calm Calm - N/A   Clear
1:15 PM 50.2 °F - 31.8 °F 49% 30.31 in 10.0 mi Calm Calm - N/A   Clear
1:34 PM 51.1 °F - 31.8 °F 48% 30.30 in 10.0 mi Calm Calm - N/A   Clear
1:55 PM 51.1 °F - 31.1 °F 46% 30.30 in 10.0 mi SE 3.5 mph - N/A   Clear
2:15 PM 51.3 °F - 31.3 °F 46% 30.29 in 10.0 mi SSE 3.5 mph - N/A   Clear
2:34 PM 51.8 °F - 30.7 °F 45% 30.28 in 10.0 mi SSE 4.6 mph - N/A   Clear
2:55 PM 52.9 °F - 31.8 °F 45% 30.28 in 10.0 mi ESE 5.8 mph - N/A   Clear
3:15 PM 52.7 °F - 31.5 °F 44% 30.28 in 10.0 mi Calm Calm - N/A   Clear
3:34 PM 52.5 °F - 31.6 °F 45% 30.28 in 10.0 mi Calm Calm - N/A   Clear
3:55 PM 52.9 °F - 32.0 °F 45% 30.28 in 10.0 mi Calm Calm - N/A   Clear
4:15 PM 50.2 °F - 31.5 °F 49% 30.27 in 10.0 mi East 4.6 mph - N/A   Clear
4:34 PM 49.3 °F - 32.0 °F 51% 30.27 in 10.0 mi Calm Calm - N/A   Clear
4:55 PM 45.9 °F - 32.9 °F 61% 30.27 in 10.0 mi Calm Calm - N/A   Clear
5:15 PM 42.3 °F 40.5 °F 33.3 °F 70% 30.26 in 10.0 mi East 3.5 mph - N/A   Clear
5:34 PM 43.3 °F 41.7 °F 32.7 °F 66% 30.26 in 10.0 mi East 3.5 mph - N/A   Clear
5:55 PM 44.1 °F 42.5 °F 32.0 °F 63% 30.26 in 10.0 mi ENE 3.5 mph - N/A   Clear
6:15 PM 44.4 °F 42.9 °F 32.0 °F 62% 30.25 in 10.0 mi ENE 3.5 mph - N/A   Clear
6:35 PM 42.4 °F - 32.5 °F 68% 30.26 in 10.0 mi Calm Calm - N/A   Clear
6:54 PM 41.0 °F 39.0 °F 32.0 °F 70% 30.25 in 10.0 mi ENE 3.5 mph - N/A   Clear
7:15 PM 41.0 °F - 32.2 °F 71% 30.25 in 10.0 mi Calm Calm - N/A   Clear
7:34 PM 38.5 °F 36.1 °F 32.2 °F 78% 30.25 in 10.0 mi ENE 3.5 mph - N/A   Clear
7:55 PM 40.3 °F - 32.0 °F 72% 30.25 in 10.0 mi Calm Calm - N/A   Clear
8:15 PM 39.4 °F 36.1 °F 32.2 °F 75% 30.24 in 10.0 mi East 4.6 mph - N/A   Clear
8:34 PM 40.1 °F - 32.2 °F 73% 30.24 in 10.0 mi Calm Calm - N/A   Clear
8:55 PM 40.6 °F - 32.2 °F 72% 30.24 in 10.0 mi Calm Calm - N/A   Clear
9:15 PM 36.9 °F 34.3 °F 31.5 °F 81% 30.23 in 10.0 mi East 3.5 mph - N/A   Clear
9:34 PM 38.3 °F - 32.0 °F 78% 30.23 in 10.0 mi Calm Calm - N/A   Clear
9:55 PM 37.0 °F - 30.7 °F 78% 30.22 in 10.0 mi Calm Calm - N/A   Clear
10:15 PM 36.7 °F - 31.6 °F 82% 30.22 in 10.0 mi Calm Calm - N/A   Clear
10:34 PM 37.9 °F - 31.6 °F 78% 30.22 in 10.0 mi Calm Calm - N/A   Clear
10:55 PM 39.2 °F - 32.0 °F 75% 30.21 in 10.0 mi Calm Calm - N/A   Clear
11:15 PM 37.6 °F - 31.6 °F 79% 30.21 in 10.0 mi Calm Calm - N/A   Clear
11:34 PM 37.2 °F - 32.0 °F 81% 30.20 in 10.0 mi Calm Calm - N/A   Clear
11:55 PM 37.0 °F - 32.0 °F 82% 30.20 in 10.0 mi Calm Calm - N/A   Clear